Temp_Advection
nan nan nan nan nan nan nan nan nan nan nan nan nan nan nan nan nan nan nan nan nan nan
nan 1 1 1 0 0 0 0 0 0 -0 0 0 0 0 1 0 -0 -0 -0 0 nan
nan 1 1 1 -0 0 0 0 0 0 0 -0 -0 0 0 0 -0 0 0 0 0 nan
nan 1 1 1 1 0 0 0 1 0 -0 -0 0 0 0 0 0 -1 -1 1 1 nan
nan 1 -1 1 1 0 0 0 0 0 0 0 0 -0 -0 0 -0 -0 0 -1 0 nan
nan -1 1 1 1 1 0 0 0 0 0 0 0 0 0 0 0 -0 -1 0 2 nan
nan 1 1 -0 0 0 0 0 0 0 0 0 0 0 0 -0 -0 0 0 -0 -0 nan
nan 1 0 -0 -0 -0 -0 -1 -0 -0 -0 -0 -0 -0 -0 -0 -0 0 0 0 0 nan
nan -0 -0 -0 -0 -1 -1 -1 -0 -0 -1 -1 -1 -1 -1 -0 -0 -1 -0 0 0 nan
nan -1 -1 -1 0 -1 -1 -0 -0 -1 -1 -1 -1 -1 -1 -1 -1 -1 -1 -0 -1 nan
nan -1 -0 0 -0 -1 -1 -0 -1 -1 -1 -1 -1 -1 -1 -1 -1 -1 -1 -1 -1 nan
nan 0 0 -0 -1 -1 -0 -1 -1 -1 -1 -1 -1 -1 -1 -1 -1 -0 -1 -1 -1 nan
nan 0 -0 -1 -1 -0 -0 -1 -0 -1 -1 -1 -0 -0 -0 -1 -0 -1 -1 -1 -1 nan
nan nan nan nan nan nan nan nan nan nan nan nan nan nan nan nan nan nan nan nan nan nan
Wind_Speed
37 40 33 33 5 23 20 19 23 26 27 29 29 31 32 32 33 33 31 31 30 30
21 20 23 26 29 16 13 14 16 17 18 27 32 30 33 34 29 26 27 26 28 29
15 14 25 28 26 20 22 20 16 18 17 20 22 29 33 38 31 31 38 29 29 29
20 16 17 17 22 23 20 20 22 15 13 15 19 23 27 31 31 34 35 28 30 37
21 11 16 7 11 11 11 15 17 14 13 11 13 14 20 24 26 29 32 33 38 43
28 26 22 17 13 10 5 5 6 8 16 15 12 14 19 21 22 27 30 33 40 43
33 30 28 22 19 16 13 9 4 5 10 10 11 16 20 21 21 24 27 29 33 37
38 35 31 25 24 22 19 17 13 8 4 2 8 14 18 20 20 25 28 29 32 34
38 35 34 32 30 25 21 20 17 16 14 10 9 9 13 15 18 21 25 29 29 29
36 34 33 28 28 29 27 23 21 20 18 18 15 13 10 11 11 14 16 18 22 25
29 27 26 27 29 29 26 26 25 24 23 21 19 16 14 12 11 11 10 11 13 15
28 27 27 28 27 25 24 25 26 25 24 23 21 20 19 16 14 14 14 14 14 13
27 27 27 26 24 22 22 22 22 22 23 23 23 21 20 20 19 18 16 15 14 14
26 25 24 22 21 20 19 19 20 21 21 23 23 23 22 22 22 21 20 19 18 19
Wind_Direction
205 216 191 180 283 171 214 219 225 220 212 232 232 232 233 237 239 244 240 245 244 245
174 187 209 178 190 213 180 198 232 241 236 232 241 240 243 242 241 251 254 247 246 247
115 149 165 182 207 238 229 238 238 245 252 250 246 242 246 245 240 248 248 250 253 254
92 104 134 176 206 237 239 230 225 226 252 257 255 245 241 240 248 244 247 258 278 276
75 85 91 143 173 219 232 234 236 231 230 238 249 251 252 252 248 249 242 247 255 252
72 82 94 90 104 120 134 179 184 201 220 224 226 235 240 245 248 258 252 249 247 256
62 60 61 61 61 71 71 77 85 203 234 240 237 242 247 251 253 254 255 260 260 262
57 55 56 54 51 51 48 49 53 52 52 340 272 264 259 260 264 260 258 255 260 263
54 53 53 51 49 51 52 48 42 40 33 18 359 324 295 287 280 273 268 261 258 260
50 50 50 53 55 54 51 48 48 43 37 29 20 8 341 320 314 295 284 273 265 252
49 51 51 52 53 51 49 49 48 47 44 41 37 24 16 13 360 355 345 325 301 275
48 49 48 47 45 45 42 43 42 41 40 39 39 39 37 32 26 19 9 2 350 336
42 43 44 45 43 44 42 41 41 40 39 40 39 36 34 35 33 35 28 21 15 10
34 36 35 34 35 36 37 36 37 35 31 30 30 29 29 30 29 29 25 26 27 26
Height
1382 1388 1392 1394 1378 1400 1420 1419 1430 1434 1436 1440 1439 1444 1449 1454 1459 1462 1464 1467 1470 1473
1380 1384 1387 1371 1404 1412 1416 1418 1426 1426 1431 1434 1435 1438 1444 1449 1453 1459 1461 1462 1465 1466
1383 1385 1386 1385 1402 1408 1415 1422 1422 1423 1426 1428 1429 1433 1435 1441 1445 1447 1454 1456 1459 1461
1390 1390 1387 1397 1397 1413 1415 1417 1417 1420 1421 1422 1423 1425 1429 1436 1437 1442 1444 1447 1451 1456
1392 1389 1381 1406 1404 1410 1411 1412 1414 1413 1416 1419 1421 1419 1425 1430 1432 1434 1436 1440 1443 1445
1395 1402 1405 1403 1408 1408 1408 1410 1407 1406 1413 1412 1408 1414 1420 1423 1426 1429 1431 1433 1435 1437
1401 1399 1392 1404 1405 1401 1404 1404 1402 1407 1408 1406 1406 1412 1417 1419 1420 1422 1424 1425 1427 1428
1399 1397 1397 1403 1402 1396 1399 1400 1404 1407 1403 1403 1408 1412 1413 1414 1414 1415 1415 1417 1419 1420
1398 1403 1406 1405 1403 1404 1409 1409 1409 1406 1407 1409 1410 1409 1409 1409 1408 1408 1408 1409 1410 1410
1410 1412 1413 1421 1420 1415 1415 1417 1414 1414 1413 1411 1409 1408 1407 1406 1405 1405 1404 1404 1403 1402
1430 1433 1434 1429 1424 1424 1425 1423 1420 1419 1417 1414 1412 1412 1409 1407 1408 1406 1403 1401 1400 1396
1444 1441 1436 1431 1431 1431 1431 1428 1426 1424 1422 1422 1419 1416 1413 1411 1410 1405 1403 1401 1398 1396
1450 1445 1443 1442 1443 1441 1437 1436 1434 1433 1431 1429 1425 1422 1418 1415 1411 1406 1405 1403 1400 1397
1454 1450 1449 1448 1446 1445 1443 1441 1438 1436 1434 1431 1427 1424 1420 1416 1411 1410 1408 1405 1403 1400